This is the latest recevied weather packets stored in our database for station/object YF9UAG-15. If no packets are shown the sender has not sent any weather packets the latest 10 day(s).
| Time | Temp. | Humidity | Pressure | Rain* | Wind** | Luminosity | Snow |
|---|---|---|---|---|---|---|---|
| 1787408002 | 29.44° C | 62% | 1019.5 hPa | - | - | - | - |
| 1787407402 | 29.44° C | 64% | 1019.6 hPa | - | - | - | - |
| 1787406802 | 29.44° C | 63% | 1019.6 hPa | - | - | - | - |
| 1787406202 | 28.89° C | 62% | 1019.7 hPa | - | - | - | - |
| 1787405602 | 29.44° C | 61% | 1019.6 hPa | - | - | - | - |
| 1787405002 | 29.44° C | 62% | 1019.6 hPa | - | - | - | - |
| 1787404402 | 29.44° C | 63% | 1019.7 hPa | - | - | - | - |
| 1787403802 | 29.44° C | 64% | 1019.6 hPa | - | - | - | - |
| 1787403202 | 29.44° C | 62% | 1019.7 hPa | - | - | - | - |
| 1787402602 | 30° C | 62% | 1019.6 hPa | - | - | - | - |
| 1787402002 | 30° C | 62% | 1019.6 hPa | - | - | - | - |
| 1787401402 | 30° C | 65% | 1019.5 hPa | - | - | - | - |
| 1787400802 | 30° C | 64% | 1019.5 hPa | - | - | - | - |
| 1787400202 | 30° C | 63% | 1019.4 hPa | - | - | - | - |
| 1787399602 | 30° C | 64% | 1019.3 hPa | - | - | - | - |
| 1787399002 | 30° C | 63% | 1019.1 hPa | - | - | - | - |
| 1787398402 | 30° C | 61% | 1019 hPa | - | - | - | - |
| 1787397802 | 30° C | 64% | 1018.8 hPa | - | - | - | - |
| 1787397202 | 30° C | 61% | 1018.6 hPa | - | - | - | - |
| 1787396602 | 30° C | 66% | 1018.6 hPa | - | - | - | - |
| 1787396002 | 30° C | 65% | 1018.5 hPa | - | - | - | - |
| 1787395402 | 30° C | 66% | 1018.4 hPa | - | - | - | - |
| 1787394802 | 30° C | 66% | 1018.3 hPa | - | - | - | - |
| 1787394202 | 30° C | 66% | 1018.2 hPa | - | - | - | - |
| 1787393602 | 30° C | 65% | 1018.1 hPa | - | - | - | - |
* Rain since midnight (hover to see other rain measurements)
** Current wind speed in m/s (hover to see current wind gust speed)